TimeEDT,TemperatureF,Dew PointF,Humidity,Sea Level PressureIn,VisibilityMPH,Wind Direction,Wind SpeedMPH,Gust SpeedMPH,PrecipitationIn,Events,Conditions,WindDirDegrees,DateUTC
12:53 AM,63.0,57.0,81,30.08,10.0,Calm,Calm,-,N/A,,Clear,0,2013-07-12 04:53:00
1:53 AM,62.1,55.9,80,30.09,10.0,Calm,Calm,-,N/A,,Clear,0,2013-07-12 05:53:00
2:53 AM,60.1,55.9,86,30.09,10.0,Calm,Calm,-,N/A,,Clear,0,2013-07-12 06:53:00
3:53 AM,62.1,55.9,80,30.11,10.0,Calm,Calm,-,N/A,,Clear,0,2013-07-12 07:53:00
4:53 AM,61.0,55.9,83,30.13,10.0,ENE,4.6,-,N/A,,Clear,70,2013-07-12 08:53:00
5:53 AM,60.1,55.0,83,30.14,10.0,East,3.5,-,N/A,,Clear,80,2013-07-12 09:53:00
6:53 AM,60.1,55.9,86,30.15,10.0,East,4.6,-,N/A,,Clear,90,2013-07-12 10:53:00
7:53 AM,64.9,57.9,78,30.16,10.0,East,4.6,-,N/A,,Clear,100,2013-07-12 11:53:00
8:53 AM,69.1,59.0,70,30.16,10.0,East,5.8,-,N/A,,Clear,90,2013-07-12 12:53:00
9:53 AM,73.9,60.1,62,30.16,10.0,East,3.5,-,N/A,,Clear,100,2013-07-12 13:53:00
10:53 AM,77.0,57.9,52,30.16,10.0,ENE,4.6,-,N/A,,Clear,70,2013-07-12 14:53:00
11:53 AM,81.0,57.0,44,30.16,10.0,North,4.6,-,N/A,,Clear,360,2013-07-12 15:53:00
12:53 PM,82.0,55.0,39,30.14,10.0,East,9.2,-,N/A,,Clear,80,2013-07-12 16:53:00
1:53 PM,84.9,55.0,36,30.14,10.0,ENE,5.8,-,N/A,,Clear,60,2013-07-12 17:53:00
2:53 PM,84.9,53.1,33,30.14,10.0,Calm,Calm,-,N/A,,Clear,0,2013-07-12 18:53:00
3:53 PM,82.9,61.0,47,30.13,10.0,NW,4.6,-,N/A,,Clear,310,2013-07-12 19:53:00
4:53 PM,84.0,60.1,44,30.12,10.0,West,5.8,-,N/A,,Clear,260,2013-07-12 20:53:00
5:53 PM,84.0,61.0,46,30.12,10.0,West,5.8,-,N/A,,Clear,280,2013-07-12 21:53:00
6:53 PM,84.0,60.1,44,30.11,10.0,Calm,Calm,-,N/A,,Clear,0,2013-07-12 22:53:00
7:53 PM,80.1,59.0,48,30.12,10.0,West,5.8,-,N/A,,Clear,280,2013-07-12 23:53:00
8:53 PM,75.0,60.1,60,30.12,10.0,WNW,4.6,-,N/A,,Clear,290,2013-07-13 00:53:00
9:53 PM,71.1,57.0,61,30.13,10.0,Calm,Calm,-,N/A,,Clear,0,2013-07-13 01:53:00
10:53 PM,66.0,55.9,70,30.14,10.0,Calm,Calm,-,N/A,,Clear,0,2013-07-13 02:53:00
11:53 PM,66.0,57.0,73,30.14,10.0,Calm,Calm,-,N/A,,Clear,0,2013-07-13 03:53:00